Location: Pella
(41.4080°N, 92.9160°W)
Time: 02:30:29
(UTC-05:00)

Daily predictions for brighter satellites

Satellite Brightness Start Highest point End
(mag) Time Altitude Azimuth Time Altitude Azimuth Time Altitude Azimuth
SL-16 R/B 4.4 02:29:55 24° NNE 02:29:55 24° NNE 02:32:51 10° N
Cosmos 2227 Rocket 4.4 02:50:07 21° NE 02:50:07 21° NE 02:51:57 10° NNE
ARIANE 5 R/B 4.4 03:23:41 10° NNE 03:25:59 26° NNE 03:25:59 26° NNE
Cosmos 2297 Rocket 3.6 03:32:42 33° NNE 03:32:42 33° NNE 03:35:44 10° NNE
Resurs 1-4 Rocket 3.8 03:26:44 10° NNE 03:29:12 28° NNE 03:29:12 28° NNE
CZ-4C R/B 3.4 03:37:50 39° NNE 03:37:50 39° NNE 03:41:32 10° NE
Lacrosse 5 rocket 4.4 03:42:10 11° NNE 03:42:10 11° NNE 03:42:23 10° NNE
CZ-2D R/B 3.6 03:48:36 10° N 03:51:10 29° N 03:51:10 29° N
SL-16 R/B 4.4 04:03:15 10° NNW 04:03:50 13° NNW 04:03:50 13° NNW
ADEOS 4.5 04:05:11 10° N 04:08:36 41° N 04:08:36 41° N
SL-16 R/B 4.2 04:15:01 19° NW 04:15:01 19° NW 04:16:45 10° NNW
Cosmos 407 Rocket 3.9 04:11:36 61° ENE 04:11:36 61° ENE 04:16:24 10° NNE
Cosmos 2142 Rocket 4.4 04:12:31 83° N 04:12:31 83° N 04:18:35 10° N
Cosmos 1627 Rocket 4.4 04:17:47 10° N 04:23:15 67° NW 04:23:15 67° NW
Cosmos 1634 Rocket 4.1 04:29:00 58° WNW 04:29:00 58° WNW 04:34:49 10° N
Cosmos 2227 Rocket 3.7 04:31:57 23° NW 04:31:57 23° NW 04:35:23 10° N
Okean 3 3.9 04:35:54 58° E 04:35:54 58° E 04:40:07 10° NNE
Meteor 1-11 Rocket 4.0 04:30:50 10° NNW 04:35:19 52° NW 04:35:19 52° NW
Cosmos 405 Rocket 3.6 04:39:18 46° NNE 04:39:18 46° NNE 04:42:11 10° NNE
Cosmos 967 Rocket 4.4 04:38:06 10° NW 04:44:28 64° WSW 04:50:49 10° SSE
Cosmos 2263 Rocket 3.7 04:42:06 10° SSE 04:47:03 34° ESE 04:52:07 10° NE
Cosmos 1190 Rocket 4.1 04:47:19 55° WNW 04:47:19 55° WNW 04:52:20 10° NNE
Cosmos 1655 Rocket 3.9 04:43:10 10° NNW 04:49:28 70° W 04:53:00 27° S
Okean O Rocket 2.7 04:50:14 10° NNE 04:54:21 41° E 04:57:53 13° SSE
USA 215 4.4 04:50:56 10° E 04:56:56 41° NNE 05:02:57 10° NW
ASTEX 1 3.3 04:52:08 10° N 04:57:05 84° E 04:59:44 28° S
Cosmos 1140 Rocket 3.5 04:55:03 38° S 04:57:06 78° ESE 05:02:21 10° NNE
Cosmos 1378 Rocket 3.5 04:56:19 56° S 04:57:13 86° E 05:01:39 10° N
ISS -3.0 04:59:45 50° E 04:59:45 50° E 05:02:21 10° ESE
ADEOS II 2.0 04:57:14 10° NNE 05:02:31 85° WNW 05:05:08 31° SSW
Meteor 1-27 Rocket 4.4 05:04:52 34° WNW 05:04:52 34° WNW 05:09:40 10° N
Cosmos 2266 Rocket 4.2 04:58:37 10° N 05:05:03 74° E 05:11:26 10° SSE
Abrixas rocket 3.5 05:05:12 33° SE 05:05:12 33° SE 05:08:06 10° ENE
Cosmos 1812 2.6 05:05:23 65° S 05:05:55 89° W 05:09:49 10° N
ARIANE 5 R/B 4.3 05:04:00 10° NNW 05:06:19 17° NW 05:06:19 17° NW
Cosmos 1975 4.4 05:05:07 10° N 05:08:58 37° ENE 05:12:47 10° SSE
Cosmos 1954 Rocket 3.9 05:07:05 40° SW 05:08:58 72° WNW 05:14:19 10° NNE
Cosmos 676 Rocket 4.1 05:09:13 43° WSW 05:10:38 58° WNW 05:15:54 10° NNE
Resurs 1-4 Rocket 4.0 05:08:27 10° NNW 05:10:17 14° NW 05:10:17 14° NW
Cosmos 405 4.2 05:07:46 10° NNW 05:09:41 29° NNW 05:09:41 29° NNW
CZ-4B R/B 3.7 05:09:07 10° NNE 05:14:21 58° ESE 05:19:34 10° S
Cosmos 2297 Rocket 4.0 05:14:32 14° NW 05:14:59 15° NW 05:18:02 10° NNW
CZ-4B R/B 2.8 05:11:28 10° NNE 05:15:42 86° WNW 05:17:34 31° SSW
Okean 1 Rocket 3.2 05:14:07 10° NNW 05:18:26 50° W 05:20:03 33° SSW
Lacrosse 5 rocket 3.8 05:18:12 10° NNW 05:18:55 10° NNW 05:19:39 10° N
DELTA 2 R/B (1) 3.6 05:17:51 36° WSW 05:20:07 69° S 05:25:40 10° E
Okean 1 3.6 05:18:49 10° S 05:22:44 69° E 05:26:43 10° NNE
CZ-4C R/B 3.8 05:23:01 17° WNW 05:25:06 20° NNW 05:29:32 10° NNE
MOS 1-B 4.4 05:19:45 10° N 05:25:24 55° WNW 05:29:11 21° SW
Intercosmos 25 Rocket 4.5 05:20:39 10° S 05:25:34 48° E 05:29:00 10° NNE
Cosmos 1441 Rocket 3.6 05:26:57 38° WNW 05:26:58 38° WNW 05:30:30 10° N
PSLV R/B 3.9 05:23:47 10° N 05:27:35 52° WNW 05:28:46 36° SW
Meteor 1-18 Rocket 4.3 05:23:37 10° S 05:29:31 87° W 05:35:30 10° N
Cosmos 1500 3.0 05:26:49 10° N 05:30:34 76° W 05:34:18 10° S
Cosmos 614 Rocket 4.0 05:28:45 25° SW 05:31:39 59° WNW 05:36:43 10° NNE
Cosmos 220 Rocket 4.1 05:31:40 11° SSW 05:35:45 77° ESE 05:40:04 10° NNE
Atlas Centaur 2 3.7 05:35:07 13° SSW 05:37:49 18° S 05:41:01 10° SE
Meteor 1-31 Rocket 3.1 05:38:49 10° NNE 05:42:42 68° E 05:46:33 10° S
H-2A R/B 4.5 05:24:37 18° W 05:43:21 38° SSW 05:49:07 10° SE
Meteor 1-12 Rocket 4.4 05:37:50 10° N 05:43:54 89° W 05:49:55 10° S
Cosmos 2084 3.2 05:41:47 10° NW 05:45:32 56° WSW 05:49:24 10° SSE
CZ-4B DEB 4.1 05:40:07 10° N 05:45:33 70° WNW 05:50:58 10° SSW
Meteor 1-4 Rocket 4.1 05:44:58 10° N 05:48:16 38° ENE 05:51:31 10° SSE
CZ-2C R/B 3.8 05:43:44 10° SSE 05:48:23 85° ENE 05:53:09 10° NNW
Cosmos 1603 4.3 05:43:39 10° NW 05:48:37 32° WSW 05:53:35 10° SSW
Tiangong 1 0.9 05:47:38 30° WNW 05:48:43 62° N 05:51:23 10° E
Okean-O 4.0 05:46:08 10° NNE 05:50:20 41° E 05:54:31 10° S
Cosmos 1607 3.9 05:45:59 10° SW 05:52:12 80° WNW 05:58:37 10° NNE
PSLV R/B 4.4 05:55:01 10° N 05:58:41 29° WNW 06:01:41 13° SW
Cosmos 1544 Rocket 3.4 05:54:32 10° N 05:58:52 77° W 06:03:11 10° S
Cosmos 1975 Rocket 3.6 05:55:08 10° SW 05:59:16 37° WNW 06:03:23 10° N
Landsat 4 4.0 06:01:34 10° S 06:05:13 45° W 06:08:55 10° NNW
Cosmos 1455 Rocket 2.9 06:02:51 10° NNW 06:07:11 69° W 06:11:27 10° S
Meteor 1-13 Rocket 4.5 06:04:04 10° S 06:10:00 85° E 06:15:59 10° N
IDEFIX/ARIANE 42P 4.5 06:06:10 10° NNE 06:10:58 34° E 06:15:43 10° SSE
Cosmos 1743 2.7 06:08:23 10° NNW 06:12:16 66° W 06:16:08 10° S
GEOS 3 Rocket 3.6 06:07:10 10° SSE 06:12:19 74° SW 06:17:37 10° NW
Cosmos 1666 2.6 06:08:44 10° N 06:12:30 86° W 06:16:16 10° S
Cosmos 1741 Rocket 4.4 06:09:11 10° SW 06:14:06 42° WNW 06:19:07 10° N
Cosmos 1437 Rocket 3.6 06:11:32 10° NNW 06:14:53 28° W 06:18:16 10° SSW
Cosmos 1943 3.7 06:10:33 10° NW 06:15:46 38° WSW 06:20:57 10° S
ATLAS 3B R/B 3.3 06:08:29 10° SSW 06:15:50 65° ESE 06:22:54 10° NE
Cosmos 1553 Rocket 4.1 06:12:18 10° S 06:18:29 82° E 06:24:36 10° N
SKYMED 2 3.9 06:16:07 10° SSE 06:20:25 73° ENE 06:24:46 10° N
Cosmos 1844 Rocket 3.9 06:18:48 10° S 06:24:09 46° ESE 06:29:34 10° NE
Cosmos 1536 Rocket 3.5 06:20:09 10° SSW 06:24:26 64° W 06:28:46 10° N
GPS 2-05 Rocket1 4.2 06:24:17 10° WSW 06:26:45 22° S 06:29:12 10° SE
Okean O Rocket 3.1 06:27:26 10° NNW 06:30:24 18° WNW 06:33:22 10° WSW
Cosmos 2263 Rocket 2.9 06:25:43 10° SW 06:30:55 36° WNW 06:36:09 10° N
SL-8 R/B 3.8 06:26:08 10° WSW 06:30:57 77° NNW 06:35:46 10° ENE
